Location: Del Amo
(33.8464°N, 118.2104°W)
Time: 17:17:12
(UTC+00:00)

Vanguard 2 Rocket - Pass Details

Date: 18 September 2024
Orbit: 553 x 3298 km, 32.9° (Epoch: 11 October)

Event Time Altitude Azimuth Distance (km) Brightness Sun altitude
Rises 14:25:51 0° 284° (WNW) 6,038 10.4 9.0°
Reaches altitude 10° 14:29:35 10° 279° (W) 5,332 10.2 9.7°
Maximum altitude 14:45:32 47° 212° (SSW) 3,884 10.1 13.0°
Drops below altitude 10° 15:04:00 10° 146° (SE) 6,058 11.9 16.8°
Sets 15:08:40 0° 141° (SE) 6,880 12.2 17.8°
